Regional Weather Roundup
Issued by NWS Charleston, SC

Current Version | Previous Version | Graphics & Text | Print | Product List | Glossary On
Versions: 1 2 3 4 5 6 7 8 9 10 11 12 13 14 15 16 17 18 19 20 21 22 23 24 25 26 27 28 29 30 31 32 33 34 35 36 37 38 39 40 41 42 43 44 45 46 47 48 49 50
879
ASUS42 KCHS 112212
RWRCHS

REGIONAL WEATHER ROUNDUP
NATIONAL WEATHER SERVICE CHARLESTON SC
500 PM EST MON DEC 11 2017

NOTE: "FAIR" INDICATES FEW OR NO CLOUDS BELOW 12,000 FEET WITH NO
SIGNIFICANT WEATHER AND/OR OBSTRUCTIONS TO VISIBILITY.

NOT ALL STATIONS ARE QUALITY CONTROLLED. USE DATA WITH CAUTION...
ESPECIALLY DEWPOINT OBSERVATIONS.

SCZ027-030-031-034>040-042>050-112300-
...SOUTHEAST SOUTH CAROLINA...

CITY           SKY/WX    TMP DP  RH WIND       PRES   REMARKS
N CHARLESTON   CLEAR     53  34  48 SW5       30.06S
WATERFRONT PRK   N/A     57  34  41 VRB2      29.92S
JOHNS ISLAND   FAIR      55  36  47 SW3       30.07S
PINOPOLIS        N/A     54  37  54 CALM      29.98F
MONCKS CORNER  FAIR      50  34  53 CALM      30.05S
SUMMERVILLE    FAIR      52  36  54 CALM      30.07R
BEAUFORT MCAS  CLEAR     57  41  55 S5        30.08S
BEAUFORT ARPT  FAIR      54  39  58 S6        30.08R
HILTON HEAD IS CLEAR     57  36  44 W6        30.09S
WALTERBORO     CLEAR     54  36  50 SW3       30.07S
ALLENDALE      FAIR      57  36  44 CALM      30.06R

...SOUTHERN MIDLANDS AND PEE DEE...

CITY           SKY/WX    TMP DP  RH WIND       PRES   REMARKS
GEORGETOWN     FAIR      48  39  71 CALM      30.06S
KINGSTREE      FAIR      52  32  46 CALM      30.04S
ORANGEBURG     CLEAR     53  35  50 S6        30.05R
BARNWELL         N/A     59  37  44 SW3       30.05S
AIKEN          FAIR      54  32  43 S6        30.07R
MANNING        FAIR      50   9  18 MISG      30.05S
COLUMBIA       CLEAR     57  34  41 SW6       30.02F
SUMTER           N/A     53  31  42 S7        30.01F
FLORENCE       CLEAR     52  29  41 SW5       30.04S
MYRTLE BEACH   CLEAR     49  38  65 SE6       30.06F
N MYRTLE BEACH CLEAR     49  37  63 S5        30.04F

$$

GAZ063-065-086>088-099>101-113>116-118-119-134>141-150-112300-
...SOUTHEAST GEORGIA...

CITY           SKY/WX    TMP DP  RH WIND       PRES   REMARKS
SAVANNAH ARPT  PTCLDY    57  34  41 SW6       30.09S
HUNTER AAF     CLEAR     57  36  45 SW5       30.07R
FORT STEWART   CLEAR     59  35  40 SW7       30.07S
STATESBORO     CLEAR     58  31  36 SW5       30.08S
SYLVANIA       CLEAR     58  38  47 W3        30.08S
CLAXTON        FAIR      59  38  45 CALM      30.09S

...CSRA...CENTRAL AND FAR SOUTHEAST GEORGIA...

CITY           SKY/WX    TMP DP  RH WIND       PRES   REMARKS
THOMSON        CLEAR     58  34  40 NW6       30.09S
AUGUSTA-BUSH   CLEAR     59  33  37 SW10      30.04S
AUGUSTA-DANIEL CLEAR     60  33  36 SW7       30.04S
SWAINSBORO     FAIR      59  36  41 W3        30.08S
VIDALIA        CLEAR     61  37  41 SW6       30.09R
EASTMAN        FAIR      61  20  20 SW5       30.11S
HAZLEHURST     FAIR      60  22  22 SW5       30.09S
ALMA           CLEAR     60  36  40 SW7       30.10S
WAYCROSS       CLEAR     60  30  31 W7        30.12R
JESUP          NOT AVBL
BAXLEY         FAIR      57  34  41 SW5       30.09F
BRUNSWICK      CLEAR     59  34  38 SW6       30.12R
SAINT SIMONS   CLEAR     59  36  42 SW8       30.11R

$$

SCZ027-028-034-036>038-045-046-048>050-GAZ119-141-112300-
...LAKE AND SUPPLEMENTAL COASTAL OBSERVATIONS...

STATION/POSITION TIME  TEMP    WIND        PRES    WAVE   SWELL
                       AIR SEA DIR/SP/G            HT/PER HT/PER/DIR
                 (UTC) (F)     (DEG/KT/KT) (MB)    (FT/S) (FT/S/D)
WINYAH BAY       2045   52     160/  6     1018.0
LAKE MURRAY      2120   60     200/  3/  5 1015.9F
ACE BASIN NERRS  2045          210/  1     1018.0
FORT PULASKI     2148   56 55  220/  5/  6 1019.1R
SAPELO ISLAND    NOT AVBL

$$

ANZ835-935-AMZ111-154-330-350-352-354-370-450-454-472-112300-
...C-MAN AND BUOY OBSERVATIONS...

STATION/POSITION TIME  TEMP    WIND        PRES    WAVE   SWELL
                       AIR SEA DIR/SP/G            HT/PER HT/PER/DIR
                 (UTC) (F)     (DEG/KT/KT) (MB)    (FT/S) (FT/S/D)
BUOY 41004       2150      74  270/ 12/ 16 1017.7F   3/ 5   2/100/ 9
BUOY 41008       2150   57 62  200/ 12/ 14 1019.2S   1/ 9   2/110/ 9
FOLLY BEACH CMAN 2100   54     210/ 11/ 13 1018.8F
CAPERS NEARSHORE 2108   50 58  220/ 10/ 12 1017.8F
FRIPP NEARSHORE  2108   52 56  190/  8/ 12 1018.2S


STATION/POSITION TIME  TEMP    WIND        PRES    WAVE   SWELL
                       AIR SEA DIR/SP/G            HT/PER HT/PER/DIR
                 (UTC) (F)     (DEG/KT/KT) (MB)    (FT/S) (FT/S/D)
5E ST. MARYS GA  2130      60                N/A     1/ 9
FRYING PAN BUOY  2150   53 60  280/  8/ 10 1017.4F   3/ 5   2/220/ 5
BUOY 41025       2150   52     320/  4/  8 1017.9F   4/ 6   3/210/ 6
CAPE LOOKOUT NC  2100          210/  3/  3 1018.1F
BUOY 41002       2150   66 76  280/ 10/ 16 1018.0S   4/ 9   3/ 70/ 9
BUOY 41010       NOT AVBL
ST AUGUSTINE FL  2200   59 62  220/  5/  6 1021.1R


$$




USA.gov is the U.S. government's official web portal to all federal, state and local government web resources and services.